Lid_Strength_Index
1 1 1 1 2 2 2 2 2 2 2 3 3 3 3 3 3 3 3 3 3 3 3 3 2 2 6 9 8 0 -2 -2 1 5 6 5 6 7 9 8 8 9 8 7 6 6 6
2 2 2 2 2 2 2 2 2 2 3 3 3 3 3 3 3 3 3 3 3 3 3 3 2 2 7 11 3 -0 2 3 5 4 5 4 7 6 7 8 8 7 7 7 6 6 6
2 2 2 2 2 2 2 2 2 2 3 3 3 3 4 4 4 4 4 4 4 4 3 3 2 3 8 7 3 3 6 8 5 4 4 4 6 9 6 8 6 7 9 7 7 7 7
2 2 2 2 2 2 2 2 2 3 3 3 3 4 4 4 4 4 4 5 4 3 3 2 3 6 12 5 4 3 5 6 5 3 5 5 7 11 7 5 7 9 9 12 8 7 7
3 3 3 3 3 3 3 3 3 3 3 3 4 4 4 4 4 4 5 5 4 3 3 2 6 8 10 3 6 5 4 5 4 4 4 4 10 13 12 13 12 10 14 12 11 7 8
3 3 3 2 3 3 3 3 4 4 4 4 4 4 5 5 5 5 5 5 4 4 3 2 4 10 8 8 8 6 4 4 5 7 7 8 12 15 15 15 15 13 14 12 12 10 9
3 3 3 3 3 3 3 4 4 4 4 4 4 4 5 5 5 5 7 9 10 11 7 11 9 8 7 6 7 7 5 5 7 9 12 11 13 16 14 14 12 12 11 12 10 8 10
3 3 3 3 3 3 4 4 4 4 4 4 4 5 5 5 5 6 9 10 9 9 12 9 7 6 6 6 9 8 6 9 10 12 11 12 14 13 13 13 14 14 13 13 10 9 10
3 3 3 4 4 4 4 4 4 4 4 5 5 5 5 5 6 8 10 10 8 8 13 11 9 9 8 8 9 8 7 9 10 11 12 13 11 9 13 14 14 15 12 12 12 10 9
3 3 3 4 4 4 4 4 4 4 4 5 5 5 5 6 9 9 10 8 8 9 15 12 11 8 9 9 10 6 7 8 11 11 11 13 10 9 10 15 15 17 10 9 11 12 15
3 3 3 4 4 4 4 4 4 5 5 5 5 5 6 6 9 9 9 8 8 10 18 10 12 9 11 10 10 9 7 9 11 11 12 12 12 11 11 11 13 14 11 9 10 13 13
3 3 3 4 4 4 4 5 5 5 5 5 5 6 6 8 10 8 7 9 10 15 17 13 12 13 13 12 11 9 8 9 9 11 13 12 10 10 10 9 9 9 11 12 12 13 17
3 4 4 4 4 4 5 5 5 5 5 5 6 6 7 6 11 8 9 10 16 18 12 15 14 14 14 14 12 10 11 11 14 16 17 13 11 10 9 11 9 11 14 17 18 18 18
4 4 4 4 4 5 5 5 5 5 5 6 6 7 7 7 7 8 10 13 17 13 13 12 14 15 14 13 13 12 13 13 13 14 16 17 15 11 9 9 11 12 14 16 19 18 16
4 4 4 4 5 5 5 5 5 5 6 6 7 8 9 8 6 9 11 16 16 13 11 11 14 15 16 14 13 14 14 14 13 13 15 17 15 10 9 9 9 12 14 13 16 18 18
5 5 5 5 5 5 5 5 5 5 6 6 9 9 8 7 7 11 13 15 14 11 11 12 15 14 16 16 15 15 14 13 12 12 13 14 16 12 10 10 11 12 11 14 16 18 20
5 5 5 5 5 5 5 5 5 5 6 7 9 10 8 7 10 12 16 16 13 10 10 12 14 14 15 14 15 16 15 12 12 12 13 15 15 13 12 13 12 13 14 15 15 17 18
5 5 6 5 5 5 5 5 5 6 7 7 9 12 7 9 12 16 15 13 11 11 10 10 12 12 13 13 14 15 15 13 10 10 12 13 15 15 13 12 11 13 14 15 16 17 18
6 6 6 6 6 5 5 5 6 6 7 7 10 10 7 9 15 15 13 11 9 10 10 11 11 12 12 13 15 13 13 10 10 10 11 11 15 16 14 14 11 12 12 15 16 17 17
7 6 6 6 6 6 5 5 5 6 6 8 10 12 11 10 12 13 12 11 10 7 8 9 10 11 13 14 13 13 12 10 9 9 4 8 15 15 16 15 13 13 11 12 14 17 17
7 6 6 6 6 6 6 5 5 6 6 7 10 11 11 12 11 12 11 11 11 10 8 9 11 11 13 14 14 14 13 12 9 5 10 12 15 14 14 12 11 12 11 10 14 14 14
7 7 7 6 6 6 6 5 5 5 6 8 10 10 9 11 11 11 12 11 10 9 9 9 10 9 11 13 12 13 13 13 12 10 10 12 14 13 14 12 11 11 9 10 10 11 13
5 5 5 5 5 5 5 5 5 5 6 7 7 7 8 10 11 12 11 10 9 9 8 8 9 10 11 11 11 12 11 11 11 11 12 13 13 14 16 12 12 13 11 12 12 11 11
4 4 4 4 4 4 5 5 4 5 6 5 4 5 8 11 10 10 9 8 9 9 10 8 8 11 8 8 9 11 11 10 10 12 11 12 12 13 14 13 17 12 9 10 11 11 10
3 3 3 3 3 4 4 4 4 4 4 4 3 4 7 10 9 9 9 9 8 9 9 9 7 8 10 10 12 12 14 13 11 10 11 11 12 13 15 15 13 12 11 11 12 13 9
2 2 2 2 3 3 3 3 3 3 2 3 3 2 6 8 9 7 9 8 10 11 10 8 7 8 11 13 12 14 16 15 14 13 12 11 11 12 14 15 16 12 9 7 8 16 9
1 1 2 2 1 2 2 2 3 3 2 2 2 1 4 8 6 6 9 9 8 9 10 9 8 8 9 13 14 14 14 11 13 14 14 14 14 15 15 15 13 9 7 7 14 13 8
1 1 1 1 1 1 1 1 1 1 1 2 2 1 3 6 6 4 4 7 7 8 11 8 9 10 11 12 12 13 14 12 12 11 11 12 15 15 16 16 16 7 8 11 9 8 7
1 1 1 1 1 1 1 1 1 0 1 0 3 1 1 4 5 3 4 4 4 5 7 8 9 10 10 11 11 11 12 11 13 14 11 12 10 14 14 14 10 8 9 7 6 7 7